Back to catalog

FREGAT DEB

LostHEO
NORAD 46019·DEBRIS·🇷🇺 Russia

Launched Jul 18, 2011 from Baikonur Cosmodrome

Loading…

Next Passes (next 24 hours)

TLE

StaleSource: Space-Track

Epoch: Aug 30, 2020, 18:40 UTC

1 46019U 11037HW  20243.77841792  .00272251  00000-0  13111+0 0  9993
2 46019  51.6698 255.1576 2865053 125.1234 265.2655  9.22889569  2983

Track FREGAT DEB in real time with AllMySat

Download on the App Store